Time,TemperatureF,DewpointF,PressureIn,WindDirection,WindDirectionDegrees,WindSpeedMPH,WindSpeedGustMPH,Humidity,HourlyPrecipIn,Conditions,Clouds,dailyrainin,SoftwareType,DateUTC
2013-03-20 00:01:00,27.5,11.7,30.23,SSW,209,0.0,0.0,51,0.00,CLR,,0.00,WeatherDisplay:10.37,2013-03-20 06:01:00,
2013-03-20 00:06:00,27.5,11.7,30.23,SSW,209,0.0,0.0,51,0.00,CLR,,0.00,WeatherDisplay:10.37,2013-03-20 06:06:00,
2013-03-20 00:11:00,27.4,11.6,30.23,SSW,209,0.0,0.0,51,0.00,CLR,,0.00,WeatherDisplay:10.37,2013-03-20 06:11:00,
2013-03-20 00:16:00,27.4,12.1,30.22,SSW,209,0.0,0.0,52,0.00,CLR,,0.00,WeatherDisplay:10.37,2013-03-20 06:16:00,
2013-03-20 00:21:00,27.4,12.1,30.22,SSW,209,0.0,0.0,52,0.00,CLR,,0.00,WeatherDisplay:10.37,2013-03-20 06:21:00,
2013-03-20 00:26:00,27.4,12.1,30.22,SSW,209,0.0,0.0,52,0.00,CLR,,0.00,WeatherDisplay:10.37,2013-03-20 06:26:00,
2013-03-20 00:31:00,27.5,12.2,30.22,SSW,209,0.0,0.0,52,0.00,CLR,,0.00,WeatherDisplay:10.37,2013-03-20 06:31:00,
2013-03-20 00:36:00,27.6,12.7,30.22,SSW,209,0.0,0.0,53,0.00,CLR,,0.00,WeatherDisplay:10.37,2013-03-20 06:36:00,
2013-03-20 00:41:00,27.6,12.7,30.22,SSW,209,0.0,0.0,53,0.00,CLR,,0.00,WeatherDisplay:10.37,2013-03-20 06:41:00,
2013-03-20 00:46:00,27.7,12.8,30.22,SSW,209,0.0,0.0,53,0.00,CLR,,0.00,WeatherDisplay:10.37,2013-03-20 06:46:00,
2013-03-20 00:51:00,27.6,13.1,30.21,SSW,209,0.0,0.0,54,0.00,CLR,,0.00,WeatherDisplay:10.37,2013-03-20 06:51:00,
2013-03-20 00:56:00,27.5,13.0,30.21,SSW,209,0.0,0.0,54,0.00,CLR,,0.00,WeatherDisplay:10.37,2013-03-20 06:56:00,
2013-03-20 01:01:00,27.5,13.0,30.21,SSW,209,0.0,0.0,54,0.00,CLR,,0.00,WeatherDisplay:10.37,2013-03-20 07:01:00,
2013-03-20 01:06:00,27.4,13.3,30.21,SSW,209,0.0,0.0,55,0.00,CLR,,0.00,WeatherDisplay:10.37,2013-03-20 07:06:00,
2013-03-20 01:11:00,27.3,13.7,30.21,SSW,209,0.0,0.0,56,0.00,CLR,,0.00,WeatherDisplay:10.37,2013-03-20 07:11:00,
2013-03-20 01:16:00,27.2,14.0,30.21,SSW,209,0.0,0.0,57,0.00,CLR,,0.00,WeatherDisplay:10.37,2013-03-20 07:16:00,
2013-03-20 01:21:00,27.1,13.9,30.20,SSW,209,0.0,0.0,57,0.00,CLR,,0.00,WeatherDisplay:10.37,2013-03-20 07:21:00,
2013-03-20 01:26:00,27.1,13.9,30.20,SSW,209,0.0,0.0,57,0.00,CLR,,0.00,WeatherDisplay:10.37,2013-03-20 07:26:00,
2013-03-20 01:31:00,27.0,13.8,30.20,SSW,209,0.0,0.0,57,0.00,CLR,,0.00,WeatherDisplay:10.37,2013-03-20 07:31:00,
2013-03-20 01:36:00,27.0,13.4,30.19,SSW,209,0.0,0.0,56,0.00,CLR,,0.00,WeatherDisplay:10.37,2013-03-20 07:36:00,
2013-03-20 01:41:00,27.0,13.4,30.19,SSW,209,0.0,0.0,56,0.00,CLR,,0.00,WeatherDisplay:10.37,2013-03-20 07:41:00,
2013-03-20 01:46:00,27.0,13.4,30.19,SSW,209,0.0,0.0,56,0.00,CLR,,0.00,WeatherDisplay:10.37,2013-03-20 07:46:00,
2013-03-20 01:51:00,27.0,13.4,30.19,SSW,209,0.0,0.0,56,0.00,CLR,,0.00,WeatherDisplay:10.37,2013-03-20 07:51:00,
2013-03-20 01:56:00,27.0,13.4,30.19,SSW,209,0.0,0.0,56,0.00,CLR,,0.00,WeatherDisplay:10.37,2013-03-20 07:56:00,
2013-03-20 02:01:00,27.0,13.0,30.19,SSW,209,0.0,0.0,55,0.00,CLR,,0.00,WeatherDisplay:10.37,2013-03-20 08:01:00,
2013-03-20 02:06:00,27.1,13.1,30.18,SSW,209,0.0,0.0,55,0.00,CLR,,0.00,WeatherDisplay:10.37,2013-03-20 08:06:00,
2013-03-20 02:11:00,27.1,13.1,30.18,SSW,209,0.0,0.0,55,0.00,CLR,,0.00,WeatherDisplay:10.37,2013-03-20 08:11:00,
2013-03-20 02:16:00,27.1,13.5,30.18,SSW,209,0.0,0.0,56,0.00,CLR,,0.00,WeatherDisplay:10.37,2013-03-20 08:16:00,
2013-03-20 02:21:00,27.1,13.5,30.18,SSW,209,0.0,0.0,56,0.00,CLR,,0.00,WeatherDisplay:10.37,2013-03-20 08:21:00,
2013-03-20 02:26:00,27.1,13.5,30.18,SSW,209,0.0,0.0,56,0.00,CLR,,0.00,WeatherDisplay:10.37,2013-03-20 08:26:00,
2013-03-20 02:31:00,27.2,13.6,30.18,SSW,209,0.0,0.0,56,0.00,CLR,,0.00,WeatherDisplay:10.37,2013-03-20 08:31:00,
2013-03-20 02:36:00,27.2,13.1,30.18,SSW,209,0.0,0.0,55,0.00,CLR,,0.00,WeatherDisplay:10.37,2013-03-20 08:36:00,
2013-03-20 02:41:00,27.2,12.7,30.18,SSW,209,0.0,0.0,54,0.00,CLR,,0.00,WeatherDisplay:10.37,2013-03-20 08:41:00,
2013-03-20 02:46:00,27.3,12.4,30.18,SSW,209,0.0,0.0,53,0.00,CLR,,0.00,WeatherDisplay:10.37,2013-03-20 08:46:00,
2013-03-20 02:51:00,27.4,12.9,30.17,SSW,209,0.0,0.0,54,0.00,CLR,,0.00,WeatherDisplay:10.37,2013-03-20 08:51:00,
2013-03-20 02:56:00,27.4,13.7,30.17,SSW,209,0.0,0.0,56,0.00,CLR,,0.00,WeatherDisplay:10.37,2013-03-20 08:56:00,
2013-03-20 03:01:00,27.4,13.7,30.17,SSW,209,0.0,0.0,56,0.00,CLR,,0.00,WeatherDisplay:10.37,2013-03-20 09:01:00,
2013-03-20 03:06:00,27.4,12.9,30.17,SSW,209,0.0,0.0,54,0.00,CLR,,0.00,WeatherDisplay:10.37,2013-03-20 09:06:00,
2013-03-20 03:11:00,27.5,13.0,30.17,SSW,209,0.0,0.0,54,0.00,CLR,,0.00,WeatherDisplay:10.37,2013-03-20 09:11:00,
2013-03-20 03:16:00,27.4,12.9,30.17,SSW,209,0.0,0.0,54,0.00,CLR,,0.00,WeatherDisplay:10.37,2013-03-20 09:16:00,
2013-03-20 03:21:00,27.4,12.5,30.16,SSW,209,0.0,0.0,53,0.00,CLR,,0.00,WeatherDisplay:10.37,2013-03-20 09:21:00,
2013-03-20 03:26:00,27.4,12.5,30.16,SSW,209,0.0,0.0,53,0.00,CLR,,0.00,WeatherDisplay:10.37,2013-03-20 09:26:00,
2013-03-20 03:31:00,27.6,13.5,30.16,SSW,209,0.0,0.0,55,0.00,CLR,,0.00,WeatherDisplay:10.37,2013-03-20 09:31:00,
2013-03-20 03:36:00,27.8,14.1,30.15,SSW,209,0.0,0.0,56,0.00,CLR,,0.00,WeatherDisplay:10.37,2013-03-20 09:36:00,
2013-03-20 03:41:00,27.9,13.4,30.15,SSW,209,0.0,0.0,54,0.00,CLR,,0.00,WeatherDisplay:10.37,2013-03-20 09:41:00,
2013-03-20 03:46:00,28.2,14.5,30.15,SSW,209,0.0,0.0,56,0.00,CLR,,0.00,WeatherDisplay:10.37,2013-03-20 09:46:00,
2013-03-20 03:51:00,28.4,13.9,30.15,SSW,209,0.0,0.0,54,0.00,CLR,,0.00,WeatherDisplay:10.37,2013-03-20 09:51:00,
2013-03-20 03:56:00,28.6,14.5,30.14,SSW,209,0.0,0.0,55,0.00,CLR,,0.00,WeatherDisplay:10.37,2013-03-20 09:56:00,
2013-03-20 04:01:00,28.9,14.7,30.14,SSW,209,0.0,0.0,55,0.00,CLR,,0.00,WeatherDisplay:10.37,2013-03-20 10:01:00,
2013-03-20 04:06:00,29.1,15.3,30.14,SSW,209,0.0,0.0,56,0.00,CLR,,0.00,WeatherDisplay:10.37,2013-03-20 10:06:00,
2013-03-20 04:11:00,29.2,15.4,30.13,SSW,209,0.0,0.0,56,0.00,CLR,,0.00,WeatherDisplay:10.37,2013-03-20 10:11:00,
2013-03-20 04:16:00,29.2,15.8,30.13,SSW,209,0.0,0.0,57,0.00,CLR,,0.00,WeatherDisplay:10.37,2013-03-20 10:16:00,
2013-03-20 04:21:00,29.2,16.2,30.13,SSW,209,0.0,0.0,58,0.00,CLR,,0.00,WeatherDisplay:10.37,2013-03-20 10:21:00,
2013-03-20 04:26:00,29.2,16.2,30.13,SSW,209,0.0,0.0,58,0.00,CLR,,0.00,WeatherDisplay:10.37,2013-03-20 10:26:00,
2013-03-20 04:31:00,29.2,16.2,30.13,SSW,209,0.0,0.0,58,0.00,CLR,,0.00,WeatherDisplay:10.37,2013-03-20 10:31:00,
2013-03-20 04:36:00,29.2,16.2,30.13,SSW,209,0.0,0.0,58,0.00,CLR,,0.00,WeatherDisplay:10.37,2013-03-20 10:36:00,
2013-03-20 04:41:00,29.2,16.2,30.12,SSW,209,0.0,0.0,58,0.00,CLR,,0.00,WeatherDisplay:10.37,2013-03-20 10:41:00,
2013-03-20 04:46:00,29.3,15.9,30.12,SSW,209,0.0,0.0,57,0.00,CLR,,0.00,WeatherDisplay:10.37,2013-03-20 10:46:00,
2013-03-20 04:51:00,29.4,16.0,30.12,SSW,209,0.0,0.0,57,0.00,CLR,,0.00,WeatherDisplay:10.37,2013-03-20 10:51:00,
2013-03-20 04:56:00,29.4,15.6,30.12,SSW,209,0.0,0.0,56,0.00,CLR,,0.00,WeatherDisplay:10.37,2013-03-20 10:56:00,
2013-03-20 05:01:00,29.6,16.2,30.11,SSW,209,0.0,0.0,57,0.00,CLR,,0.00,WeatherDisplay:10.37,2013-03-20 11:01:00,
2013-03-20 05:06:00,29.6,16.2,30.11,SSW,209,0.0,0.0,57,0.00,CLR,,0.00,WeatherDisplay:10.37,2013-03-20 11:06:00,
2013-03-20 05:11:00,29.6,16.6,30.11,SSW,209,0.0,0.0,58,0.00,CLR,,0.00,WeatherDisplay:10.37,2013-03-20 11:11:00,
2013-03-20 05:16:00,29.6,16.6,30.11,SSW,209,0.0,0.0,58,0.00,CLR,,0.00,WeatherDisplay:10.37,2013-03-20 11:16:00,
2013-03-20 05:21:00,29.6,17.0,30.11,SSW,209,0.0,0.0,59,0.00,CLR,,0.00,WeatherDisplay:10.37,2013-03-20 11:21:00,
2013-03-20 05:26:00,29.5,16.9,30.10,SSW,209,0.0,0.0,59,0.00,CLR,,0.00,WeatherDisplay:10.37,2013-03-20 11:26:00,
2013-03-20 05:31:00,29.5,16.1,30.10,SW,221,0.0,0.2,57,0.00,CLR,,0.00,WeatherDisplay:10.37,2013-03-20 11:31:00,
2013-03-20 05:36:00,29.6,15.8,30.09,SW,221,0.0,0.0,56,0.00,CLR,,0.00,WeatherDisplay:10.37,2013-03-20 11:36:00,
2013-03-20 05:41:00,29.7,15.1,30.10,WNW,290,3.5,3.5,54,0.00,CLR,,0.00,WeatherDisplay:10.37,2013-03-20 11:41:00,
2013-03-20 05:46:00,29.8,14.3,30.10,WNW,294,0.0,0.0,52,0.00,CLR,,0.00,WeatherDisplay:10.37,2013-03-20 11:46:00,
2013-03-20 05:51:00,29.9,13.9,30.10,WNW,294,0.0,0.0,51,0.00,CLR,,0.00,WeatherDisplay:10.37,2013-03-20 11:51:00,
2013-03-20 05:56:00,29.9,13.0,30.10,WNW,294,0.0,0.0,49,0.00,CLR,,0.00,WeatherDisplay:10.37,2013-03-20 11:56:00,
2013-03-20 06:01:00,30.0,13.1,30.09,WNW,294,0.0,0.0,49,0.00,CLR,,0.00,WeatherDisplay:10.37,2013-03-20 12:01:00,
2013-03-20 06:06:00,30.1,13.2,30.09,WNW,294,0.0,0.0,49,0.00,CLR,,0.00,WeatherDisplay:10.37,2013-03-20 12:06:00,
2013-03-20 06:11:00,30.2,14.2,30.09,WNW,294,0.0,0.0,51,0.00,CLR,,0.00,WeatherDisplay:10.37,2013-03-20 12:11:00,
2013-03-20 06:16:00,30.3,15.6,30.09,WNW,294,1.1,1.1,54,0.00,CLR,,0.00,WeatherDisplay:10.37,2013-03-20 12:16:00,
2013-03-20 06:21:00,30.3,14.3,30.09,WNW,294,0.0,0.0,51,0.00,CLR,,0.00,WeatherDisplay:10.37,2013-03-20 12:21:00,
2013-03-20 06:26:00,30.4,14.9,30.08,WNW,294,0.0,0.0,52,0.00,CLR,,0.00,WeatherDisplay:10.37,2013-03-20 12:26:00,
2013-03-20 06:31:00,30.4,14.9,30.08,WNW,294,0.0,0.0,52,0.00,CLR,,0.00,WeatherDisplay:10.37,2013-03-20 12:31:00,
2013-03-20 06:36:00,30.4,14.4,30.08,WNW,294,0.0,0.0,51,0.00,CLR,,0.00,WeatherDisplay:10.37,2013-03-20 12:36:00,
2013-03-20 06:41:00,30.4,14.4,30.08,WNW,294,0.0,0.0,51,0.00,CLR,,0.00,WeatherDisplay:10.37,2013-03-20 12:41:00,
2013-03-20 06:46:00,30.4,14.4,30.08,WNW,294,0.0,0.0,51,0.00,CLR,,0.00,WeatherDisplay:10.37,2013-03-20 12:46:00,
2013-03-20 06:51:00,30.5,14.0,30.08,WNW,294,0.0,0.0,50,0.00,CLR,,0.00,WeatherDisplay:10.37,2013-03-20 12:51:00,
2013-03-20 06:56:00,30.6,15.0,30.08,WNW,294,0.0,0.0,52,0.00,CLR,,0.00,WeatherDisplay:10.37,2013-03-20 12:56:00,
2013-03-20 07:01:00,30.6,15.5,30.07,WNW,294,0.0,0.0,53,0.00,CLR,,0.00,WeatherDisplay:10.37,2013-03-20 13:01:00,
2013-03-20 07:06:00,30.9,16.2,30.08,WNW,294,0.0,0.0,54,0.00,CLR,,0.00,WeatherDisplay:10.37,2013-03-20 13:06:00,
2013-03-20 07:11:00,31.0,16.7,30.07,WNW,294,0.0,0.0,55,0.00,CLR,,0.00,WeatherDisplay:10.37,2013-03-20 13:11:00,
2013-03-20 07:16:00,31.1,16.8,30.08,WNW,294,0.0,0.0,55,0.00,CLR,,0.00,WeatherDisplay:10.37,2013-03-20 13:16:00,
2013-03-20 07:21:00,31.2,16.9,30.08,WNW,294,0.0,0.0,55,0.00,CLR,,0.00,WeatherDisplay:10.37,2013-03-20 13:21:00,
2013-03-20 07:26:00,31.3,17.0,30.08,WNW,294,1.1,0.0,55,0.00,CLR,,0.00,WeatherDisplay:10.37,2013-03-20 13:26:00,
2013-03-20 07:31:00,31.5,17.6,30.08,WNW,294,0.0,0.0,56,0.00,CLR,,0.00,WeatherDisplay:10.37,2013-03-20 13:31:00,
2013-03-20 07:36:00,31.7,18.2,30.08,WNW,294,0.0,0.0,57,0.00,CLR,,0.00,WeatherDisplay:10.37,2013-03-20 13:36:00,
2013-03-20 07:41:00,31.9,18.4,30.08,North,355,1.0,1.0,57,0.00,CLR,,0.00,WeatherDisplay:10.37,2013-03-20 13:41:00,
2013-03-20 07:46:00,32.2,18.7,30.07,SSE,152,3.5,3.5,57,0.00,CLR,,0.00,WeatherDisplay:10.37,2013-03-20 13:46:00,
2013-03-20 07:51:00,32.6,19.0,30.08,South,171,2.3,2.3,57,0.00,CLR,,0.00,WeatherDisplay:10.37,2013-03-20 13:51:00,
2013-03-20 07:56:00,32.7,18.7,30.09,South,171,0.0,0.0,56,0.00,CLR,,0.00,WeatherDisplay:10.37,2013-03-20 13:56:00,
2013-03-20 08:01:00,32.9,19.7,30.08,South,171,0.0,0.0,58,0.00,CLR,,0.00,WeatherDisplay:10.37,2013-03-20 14:01:00,
2013-03-20 08:06:00,33.0,19.4,30.08,WNW,288,2.3,2.3,57,0.00,CLR,,0.00,WeatherDisplay:10.37,2013-03-20 14:06:00,
2013-03-20 08:11:00,33.2,19.6,30.08,North,5,0.0,0.0,57,0.00,CLR,,0.00,WeatherDisplay:10.37,2013-03-20 14:11:00,
2013-03-20 08:16:00,33.5,18.2,30.08,South,187,2.3,2.3,53,0.00,CLR,,0.00,WeatherDisplay:10.37,2013-03-20 14:16:00,
2013-03-20 08:21:00,33.7,17.9,30.07,South,186,1.1,1.1,52,0.00,CLR,,0.00,WeatherDisplay:10.37,2013-03-20 14:21:00,
2013-03-20 08:26:00,34.0,17.3,30.08,South,186,0.0,0.0,50,0.00,CLR,,0.00,WeatherDisplay:10.37,2013-03-20 14:26:00,
2013-03-20 08:31:00,34.2,17.9,30.07,South,186,0.0,0.0,51,0.00,CLR,,0.00,WeatherDisplay:10.37,2013-03-20 14:31:00,
2013-03-20 08:36:00,34.4,18.6,30.08,South,186,2.3,2.3,52,0.00,CLR,,0.00,WeatherDisplay:10.37,2013-03-20 14:36:00,
2013-03-20 08:41:00,34.5,19.1,30.08,South,187,0.0,0.0,53,0.00,CLR,,0.00,WeatherDisplay:10.37,2013-03-20 14:41:00,
2013-03-20 08:46:00,34.7,17.9,30.08,South,186,0.0,0.0,50,0.00,CLR,,0.00,WeatherDisplay:10.37,2013-03-20 14:46:00,
2013-03-20 08:51:00,34.8,18.0,30.08,South,186,0.0,0.0,50,0.00,CLR,,0.00,WeatherDisplay:10.37,2013-03-20 14:51:00,
2013-03-20 08:56:00,35.0,18.7,30.08,South,186,0.0,0.0,51,0.00,CLR,,0.00,WeatherDisplay:10.37,2013-03-20 14:56:00,
2013-03-20 09:01:00,35.2,18.4,30.08,South,187,0.0,0.0,50,0.00,CLR,,0.00,WeatherDisplay:10.37,2013-03-20 15:01:00,
2013-03-20 09:06:00,35.5,18.7,30.08,South,186,0.0,0.0,50,0.00,CLR,,0.00,WeatherDisplay:10.37,2013-03-20 15:06:00,
2013-03-20 09:11:00,35.7,19.8,30.08,South,186,0.0,0.0,52,0.00,CLR,,0.00,WeatherDisplay:10.37,2013-03-20 15:11:00,
2013-03-20 09:16:00,36.0,20.5,30.08,South,187,0.0,0.0,53,0.00,CLR,,0.00,WeatherDisplay:10.37,2013-03-20 15:16:00,
2013-03-20 09:21:00,36.2,20.7,30.08,South,186,0.0,0.0,53,0.00,CLR,,0.00,WeatherDisplay:10.37,2013-03-20 15:21:00,
2013-03-20 09:26:00,36.5,21.0,30.08,South,172,3.5,3.5,53,0.00,CLR,,0.00,WeatherDisplay:10.37,2013-03-20 15:26:00,
2013-03-20 09:31:00,36.7,21.2,30.08,South,172,2.3,0.0,53,0.00,CLR,,0.00,WeatherDisplay:10.37,2013-03-20 15:31:00,
2013-03-20 09:36:00,36.9,23.9,30.08,SE,131,2.3,2.3,59,0.00,CLR,,0.00,WeatherDisplay:10.37,2013-03-20 15:36:00,
2013-03-20 09:41:00,37.4,27.4,30.08,SE,137,2.3,2.3,67,0.00,CLR,,0.00,WeatherDisplay:10.37,2013-03-20 15:41:00,
2013-03-20 09:46:00,37.7,30.8,30.07,South,186,3.5,3.5,76,0.00,CLR,,0.00,WeatherDisplay:10.37,2013-03-20 15:46:00,
2013-03-20 09:51:00,37.6,31.4,30.07,South,191,3.5,3.5,78,0.00,CLR,,0.00,WeatherDisplay:10.37,2013-03-20 15:51:00,
2013-03-20 09:56:00,37.5,31.6,30.07,South,191,1.1,1.1,79,0.00,CLR,,0.00,WeatherDisplay:10.37,2013-03-20 15:56:00,
2013-03-20 10:01:00,37.4,31.8,30.06,South,191,0.0,0.0,80,0.00,CLR,,0.00,WeatherDisplay:10.37,2013-03-20 16:01:00,
2013-03-20 10:06:00,37.3,32.3,30.06,South,191,0.0,0.0,82,0.00,CLR,,0.00,WeatherDisplay:10.37,2013-03-20 16:06:00,
2013-03-20 10:11:00,37.0,32.0,30.07,South,191,0.0,0.0,82,0.00,CLR,,0.00,WeatherDisplay:10.37,2013-03-20 16:11:00,
2013-03-20 10:16:00,36.5,31.8,30.07,West,279,2.0,2.0,83,0.00,CLR,,0.00,WeatherDisplay:10.37,2013-03-20 16:16:00,
2013-03-20 10:21:00,36.1,31.4,30.07,West,281,0.0,0.0,83,0.00,CLR,,0.00,WeatherDisplay:10.37,2013-03-20 16:21:00,
2013-03-20 10:26:00,35.8,31.4,30.07,West,281,0.0,0.0,84,0.00,CLR,,0.00,WeatherDisplay:10.37,2013-03-20 16:26:00,
2013-03-20 10:31:00,35.5,31.4,30.06,West,281,0.0,0.0,85,0.00,CLR,,0.00,WeatherDisplay:10.37,2013-03-20 16:31:00,
2013-03-20 10:36:00,35.1,31.0,30.07,West,281,0.0,0.0,85,0.01,RA,,0.01,WeatherDisplay:10.37,2013-03-20 16:36:00,
2013-03-20 10:42:00,35.0,31.2,30.07,West,281,0.0,0.0,86,0.01,RA,,0.01,WeatherDisplay:10.37,2013-03-20 16:42:00,
2013-03-20 10:47:00,34.8,31.3,30.06,West,281,0.0,0.0,87,0.01,CLR,,0.01,WeatherDisplay:10.37,2013-03-20 16:47:00,
2013-03-20 10:52:00,34.6,31.4,30.06,West,281,0.0,0.0,88,0.01,CLR,,0.01,WeatherDisplay:10.37,2013-03-20 16:52:00,
2013-03-20 10:57:00,34.5,31.6,30.06,West,281,0.0,0.0,89,0.01,CLR,,0.01,WeatherDisplay:10.37,2013-03-20 16:57:00,
2013-03-20 11:02:00,34.3,31.4,30.06,West,281,0.0,0.0,89,0.01,CLR,,0.01,WeatherDisplay:10.37,2013-03-20 17:02:00,
2013-03-20 11:07:00,34.3,31.7,30.05,West,281,0.0,0.0,90,0.01,CLR,,0.01,WeatherDisplay:10.37,2013-03-20 17:07:00,
2013-03-20 11:12:00,34.3,31.7,30.05,West,281,0.0,0.0,90,0.01,CLR,,0.01,WeatherDisplay:10.37,2013-03-20 17:12:00,
2013-03-20 11:17:00,34.4,32.0,30.05,West,281,0.0,0.0,91,0.01,CLR,,0.01,WeatherDisplay:10.37,2013-03-20 17:17:00,
2013-03-20 11:22:00,34.5,32.1,30.04,ESE,113,3.5,3.5,91,0.01,CLR,,0.01,WeatherDisplay:10.37,2013-03-20 17:22:00,
2013-03-20 11:27:00,34.8,32.4,30.04,SW,232,1.1,1.1,91,0.01,CLR,,0.01,WeatherDisplay:10.37,2013-03-20 17:27:00,
2013-03-20 11:32:00,35.0,32.6,30.04,East,95,3.5,3.5,91,0.01,RA,,0.02,WeatherDisplay:10.37,2013-03-20 17:32:00,
2013-03-20 11:37:00,35.2,32.8,30.04,South,175,0.0,0.0,91,0.01,RA,,0.02,WeatherDisplay:10.37,2013-03-20 17:37:00,
2013-03-20 11:42:00,35.4,33.0,30.05,South,188,0.0,0.0,91,0.02,RA,,0.03,WeatherDisplay:10.37,2013-03-20 17:42:00,
2013-03-20 11:47:00,35.5,32.9,30.05,NW,309,3.5,3.5,90,0.02,RA,,0.04,WeatherDisplay:10.37,2013-03-20 17:47:00,
2013-03-20 11:52:00,35.5,33.1,30.05,West,281,1.1,1.1,91,0.03,RA,,0.04,WeatherDisplay:10.37,2013-03-20 17:52:00,
2013-03-20 11:57:00,35.5,33.1,30.04,West,281,1.1,0.0,91,0.03,RA,,0.04,WeatherDisplay:10.37,2013-03-20 17:57:00,
2013-03-20 12:02:00,35.5,32.9,30.04,West,281,0.0,0.0,90,0.04,RA,,0.05,WeatherDisplay:10.37,2013-03-20 18:02:00,
2013-03-20 12:07:00,35.7,33.6,30.04,West,281,0.0,0.0,92,0.05,RA,,0.06,WeatherDisplay:10.37,2013-03-20 18:07:00,
2013-03-20 12:12:00,36.0,33.9,30.04,West,281,0.0,0.0,92,0.05,RA,,0.06,WeatherDisplay:10.37,2013-03-20 18:12:00,
2013-03-20 12:17:00,36.1,33.5,30.03,West,281,0.0,0.0,90,0.06,RA,,0.07,WeatherDisplay:10.37,2013-03-20 18:17:00,
2013-03-20 12:22:00,36.1,33.7,30.03,WNW,284,0.0,0.0,91,0.06,RA,,0.07,WeatherDisplay:10.37,2013-03-20 18:22:00,
2013-03-20 12:27:00,36.4,34.3,30.03,West,280,0.0,0.0,92,0.07,RA,,0.08,WeatherDisplay:10.37,2013-03-20 18:27:00,
2013-03-20 12:32:00,36.6,34.5,30.03,West,280,0.0,0.0,92,0.06,RA,,0.08,WeatherDisplay:10.37,2013-03-20 18:32:00,
2013-03-20 12:37:00,36.9,34.8,30.03,West,280,0.0,0.0,92,0.06,CLR,,0.08,WeatherDisplay:10.37,2013-03-20 18:37:00,
2013-03-20 12:42:00,37.2,35.1,30.03,West,280,0.0,0.0,92,0.06,RA,,0.09,WeatherDisplay:10.37,2013-03-20 18:42:00,
2013-03-20 12:47:00,37.6,35.8,30.03,West,280,0.0,0.0,93,0.07,RA,,0.10,WeatherDisplay:10.37,2013-03-20 18:47:00,
2013-03-20 12:52:00,37.7,35.3,30.03,WNW,283,2.3,2.3,91,0.06,RA,,0.10,WeatherDisplay:10.37,2013-03-20 18:52:00,
2013-03-20 12:57:00,38.0,35.6,30.03,WNW,283,1.1,1.1,91,0.06,,,0.10,WeatherDisplay:10.37,2013-03-20 18:57:00,
2013-03-20 13:02:00,38.1,35.4,30.03,WNW,284,0.0,0.0,90,0.05,CLR,,0.10,WeatherDisplay:10.37,2013-03-20 19:02:00,
2013-03-20 13:07:00,38.3,35.6,30.03,WNW,284,1.1,1.1,90,0.05,RA,,0.11,WeatherDisplay:10.37,2013-03-20 19:07:00,
2013-03-20 13:12:00,38.5,36.1,30.03,WNW,284,0.0,0.0,91,0.05,RA,,0.11,WeatherDisplay:10.37,2013-03-20 19:12:00,
2013-03-20 13:17:00,38.7,36.3,30.03,WNW,284,0.0,0.0,91,0.04,,,0.11,WeatherDisplay:10.37,2013-03-20 19:17:00,
2013-03-20 13:22:00,38.9,36.2,30.03,WNW,284,1.1,1.1,90,0.04,CLR,,0.11,WeatherDisplay:10.37,2013-03-20 19:22:00,
2013-03-20 13:27:00,39.0,36.3,30.03,WNW,284,2.3,2.3,90,0.03,CLR,,0.11,WeatherDisplay:10.37,2013-03-20 19:27:00,
2013-03-20 13:32:00,39.2,36.8,30.02,WNW,284,0.0,0.0,91,0.03,CLR,,0.11,WeatherDisplay:10.37,2013-03-20 19:32:00,
2013-03-20 13:37:00,39.4,37.0,30.02,WSW,242,0.0,0.0,91,0.03,CLR,,0.11,WeatherDisplay:10.37,2013-03-20 19:37:00,
2013-03-20 13:42:00,39.7,37.6,30.02,WSW,242,0.0,0.0,92,0.02,CLR,,0.11,WeatherDisplay:10.37,2013-03-20 19:42:00,
2013-03-20 13:47:00,40.0,37.6,30.02,ESE,111,3.5,3.5,91,0.01,CLR,,0.11,WeatherDisplay:10.37,2013-03-20 19:47:00,
2013-03-20 13:52:00,40.2,37.5,30.02,SE,146,4.6,4.6,90,0.01,CLR,,0.11,WeatherDisplay:10.37,2013-03-20 19:52:00,
2013-03-20 13:57:00,40.4,37.4,30.01,South,172,2.3,2.3,89,0.01,CLR,,0.11,WeatherDisplay:10.37,2013-03-20 19:57:00,
2013-03-20 14:02:00,40.6,37.6,30.02,South,175,0.0,0.0,89,0.01,CLR,,0.11,WeatherDisplay:10.37,2013-03-20 20:02:00,
2013-03-20 14:08:00,40.6,37.0,30.02,WNW,294,2.3,2.3,87,0.00,CLR,,0.11,WeatherDisplay:10.37,2013-03-20 20:08:00,
2013-03-20 14:13:00,40.7,37.1,30.01,WNW,294,2.3,2.3,87,0.00,CLR,,0.11,WeatherDisplay:10.37,2013-03-20 20:13:00,
2013-03-20 14:18:00,40.7,37.1,30.01,WNW,294,1.1,1.1,87,0.00,CLR,,0.11,WeatherDisplay:10.37,2013-03-20 20:18:00,
2013-03-20 14:23:00,40.7,37.1,30.00,WNW,294,3.5,3.5,87,0.00,CLR,,0.11,WeatherDisplay:10.37,2013-03-20 20:23:00,
2013-03-20 14:28:00,40.8,37.5,30.00,WNW,294,1.0,1.0,88,0.01,RA,,0.12,WeatherDisplay:10.37,2013-03-20 20:28:00,
2013-03-20 14:33:00,41.0,38.0,30.00,WNW,294,0.0,0.1,89,0.01,RA,,0.12,WeatherDisplay:10.37,2013-03-20 20:33:00,
2013-03-20 14:38:00,41.1,37.2,30.00,WNW,294,1.1,0.0,86,0.01,,,0.12,WeatherDisplay:10.37,2013-03-20 20:38:00,
2013-03-20 14:43:00,41.2,37.3,30.00,WNW,298,3.5,3.5,86,0.01,CLR,,0.12,WeatherDisplay:10.37,2013-03-20 20:43:00,
2013-03-20 14:48:00,41.3,37.7,30.00,WNW,290,1.1,1.1,87,0.01,CLR,,0.12,WeatherDisplay:10.37,2013-03-20 20:48:00,
2013-03-20 14:53:00,41.5,37.3,30.00,WNW,290,2.3,0.0,85,0.01,CLR,,0.12,WeatherDisplay:10.37,2013-03-20 20:53:00,
2013-03-20 14:58:00,41.7,38.1,29.99,SE,126,3.5,3.5,87,0.01,CLR,,0.12,WeatherDisplay:10.37,2013-03-20 20:58:00,
2013-03-20 15:03:00,42.1,38.5,29.99,SE,132,3.5,3.5,87,0.01,CLR,,0.12,WeatherDisplay:10.37,2013-03-20 21:03:00,
2013-03-20 15:08:00,42.2,38.0,29.99,SE,126,4.6,4.6,85,0.01,CLR,,0.12,WeatherDisplay:10.37,2013-03-20 21:08:00,
2013-03-20 15:13:00,42.2,37.4,29.99,SE,131,6.9,6.9,83,0.01,CLR,,0.12,WeatherDisplay:10.37,2013-03-20 21:13:00,
2013-03-20 15:18:00,42.0,37.5,29.99,East,86,4.6,4.6,84,0.01,CLR,,0.12,WeatherDisplay:10.37,2013-03-20 21:18:00,
2013-03-20 15:23:00,41.8,37.3,29.99,SE,145,1.1,1.1,84,0.01,CLR,,0.12,WeatherDisplay:10.37,2013-03-20 21:23:00,
2013-03-20 15:28:00,41.7,37.5,29.99,ESE,107,2.3,2.3,85,0.00,CLR,,0.12,WeatherDisplay:10.37,2013-03-20 21:28:00,
2013-03-20 15:33:00,41.5,37.3,30.00,East,82,0.0,0.0,85,0.00,CLR,,0.12,WeatherDisplay:10.37,2013-03-20 21:33:00,
2013-03-20 15:38:00,41.3,37.1,30.00,NW,306,3.5,3.5,85,0.00,CLR,,0.12,WeatherDisplay:10.37,2013-03-20 21:38:00,
2013-03-20 15:43:00,41.0,36.5,29.99,SSE,150,3.5,3.5,84,0.00,CLR,,0.12,WeatherDisplay:10.37,2013-03-20 21:43:00,
2013-03-20 15:48:00,40.7,36.8,29.99,ESE,110,4.6,4.6,86,0.00,CLR,,0.12,WeatherDisplay:10.37,2013-03-20 21:48:00,
2013-03-20 15:53:00,40.7,37.1,29.99,SE,127,2.3,2.3,87,0.01,RA,,0.13,WeatherDisplay:10.37,2013-03-20 21:53:00,
2013-03-20 15:58:00,40.6,37.3,29.98,ESE,105,1.1,0.0,88,0.01,RA,,0.13,WeatherDisplay:10.37,2013-03-20 21:58:00,
2013-03-20 16:03:00,40.6,37.3,29.98,SE,136,3.5,3.5,88,0.01,CLR,,0.13,WeatherDisplay:10.37,2013-03-20 22:03:00,
2013-03-20 16:08:00,40.6,37.3,29.98,SE,133,2.3,2.3,88,0.01,CLR,,0.13,WeatherDisplay:10.37,2013-03-20 22:08:00,
2013-03-20 16:13:00,40.8,37.2,29.98,SE,144,3.5,3.5,87,0.01,CLR,,0.13,WeatherDisplay:10.37,2013-03-20 22:13:00,
2013-03-20 16:18:00,40.8,37.2,29.97,ENE,70,1.1,1.1,87,0.01,CLR,,0.13,WeatherDisplay:10.37,2013-03-20 22:18:00,
2013-03-20 16:23:00,41.1,37.8,29.97,ENE,74,3.5,3.5,88,0.01,CLR,,0.13,WeatherDisplay:10.37,2013-03-20 22:23:00,
2013-03-20 16:28:00,41.2,37.6,29.97,ENE,65,2.3,2.3,87,0.01,CLR,,0.13,WeatherDisplay:10.37,2013-03-20 22:28:00,
2013-03-20 16:33:00,41.3,37.1,29.97,ESE,102,1.1,1.1,85,0.01,CLR,,0.13,WeatherDisplay:10.37,2013-03-20 22:33:00,
2013-03-20 16:38:00,41.4,37.2,29.97,East,101,3.5,3.5,85,0.01,CLR,,0.13,WeatherDisplay:10.37,2013-03-20 22:38:00,
2013-03-20 16:43:00,41.4,36.9,29.97,ENE,78,2.3,0.0,84,0.01,CLR,,0.13,WeatherDisplay:10.37,2013-03-20 22:43:00,
2013-03-20 16:48:00,41.4,36.9,29.96,SE,134,2.3,2.3,84,0.01,CLR,,0.13,WeatherDisplay:10.37,2013-03-20 22:48:00,
2013-03-20 16:53:00,41.5,37.0,29.96,SE,134,0.0,0.0,84,0.00,CLR,,0.13,WeatherDisplay:10.37,2013-03-20 22:53:00,
2013-03-20 16:58:00,41.6,36.8,29.96,SE,130,1.1,0.0,83,0.00,CLR,,0.13,WeatherDisplay:10.37,2013-03-20 22:58:00,
2013-03-20 17:03:00,41.7,36.6,29.95,SE,130,0.0,0.0,82,0.00,CLR,,0.13,WeatherDisplay:10.37,2013-03-20 23:03:00,
2013-03-20 17:08:00,41.8,36.4,29.95,SSE,167,1.1,0.0,81,0.00,CLR,,0.13,WeatherDisplay:10.37,2013-03-20 23:08:00,
2013-03-20 17:13:00,41.8,36.7,29.95,SSE,168,0.0,0.0,82,0.00,CLR,,0.13,WeatherDisplay:10.37,2013-03-20 23:13:00,
2013-03-20 17:18:00,41.9,37.1,29.95,SSE,168,0.0,0.0,83,0.00,CLR,,0.13,WeatherDisplay:10.37,2013-03-20 23:18:00,
2013-03-20 17:23:00,42.0,37.2,29.95,SSE,168,0.0,0.0,83,0.00,CLR,,0.13,WeatherDisplay:10.37,2013-03-20 23:23:00,
2013-03-20 17:28:00,42.0,37.5,29.95,South,169,1.1,1.1,84,0.00,CLR,,0.13,WeatherDisplay:10.37,2013-03-20 23:28:00,
2013-03-20 17:33:00,42.0,36.9,29.95,South,185,0.0,0.0,82,0.00,CLR,,0.13,WeatherDisplay:10.37,2013-03-20 23:33:00,
2013-03-20 17:38:00,42.0,37.2,29.94,SSW,213,0.0,0.0,83,0.00,CLR,,0.13,WeatherDisplay:10.37,2013-03-20 23:38:00,
2013-03-20 17:43:00,41.9,37.1,29.94,SSW,213,0.0,0.0,83,0.00,CLR,,0.13,WeatherDisplay:10.37,2013-03-20 23:43:00,
2013-03-20 17:48:00,41.8,37.3,29.95,SSW,213,0.0,0.0,84,0.00,CLR,,0.13,WeatherDisplay:10.37,2013-03-20 23:48:00,
2013-03-20 17:53:00,41.7,37.2,29.95,SSW,213,0.0,0.0,84,0.00,CLR,,0.13,WeatherDisplay:10.37,2013-03-20 23:53:00,
2013-03-20 17:58:00,41.6,37.1,29.95,SSW,213,0.0,0.0,84,0.00,CLR,,0.13,WeatherDisplay:10.37,2013-03-20 23:58:00,
2013-03-20 18:03:00,41.5,37.0,29.95,SSW,213,0.0,0.0,84,0.00,CLR,,0.13,WeatherDisplay:10.37,2013-03-21 00:03:00,
2013-03-20 18:08:00,41.5,37.0,29.94,SSW,213,0.0,0.0,84,0.00,CLR,,0.13,WeatherDisplay:10.37,2013-03-21 00:08:00,
2013-03-20 18:13:00,41.4,36.9,29.94,SSW,213,0.0,0.0,84,0.00,CLR,,0.13,WeatherDisplay:10.37,2013-03-21 00:13:00,
2013-03-20 18:18:00,41.4,36.9,29.94,SSW,213,0.0,0.0,84,0.00,CLR,,0.13,WeatherDisplay:10.37,2013-03-21 00:18:00,
2013-03-20 18:23:00,41.5,37.3,29.93,SSW,213,0.0,0.0,85,0.00,CLR,,0.13,WeatherDisplay:10.37,2013-03-21 00:23:00,
2013-03-20 18:28:00,41.5,37.6,29.93,SSW,213,0.0,0.0,86,0.00,CLR,,0.13,WeatherDisplay:10.37,2013-03-21 00:28:00,
2013-03-20 18:33:00,41.5,37.6,29.93,SSW,213,0.0,0.0,86,0.00,CLR,,0.13,WeatherDisplay:10.37,2013-03-21 00:33:00,
2013-03-20 18:38:00,41.5,37.3,29.92,SSW,213,0.0,0.1,85,0.00,CLR,,0.13,WeatherDisplay:10.37,2013-03-21 00:38:00,
2013-03-20 18:43:00,41.5,37.3,29.92,SSW,213,0.0,0.0,85,0.00,CLR,,0.13,WeatherDisplay:10.37,2013-03-21 00:43:00,
2013-03-20 18:48:00,41.5,37.3,29.92,SSW,213,0.0,0.0,85,0.00,CLR,,0.13,WeatherDisplay:10.37,2013-03-21 00:48:00,
2013-03-20 18:53:00,41.4,37.2,29.92,SSW,213,0.0,0.0,85,0.00,CLR,,0.13,WeatherDisplay:10.37,2013-03-21 00:53:00,
2013-03-20 18:58:00,41.4,37.2,29.92,SSW,213,0.0,0.0,85,0.00,CLR,,0.13,WeatherDisplay:10.37,2013-03-21 00:58:00,
2013-03-20 19:03:00,41.3,37.1,29.92,SSW,213,0.0,0.0,85,0.00,CLR,,0.13,WeatherDisplay:10.37,2013-03-21 01:03:00,
2013-03-20 19:09:00,41.2,37.3,29.92,SSW,213,0.0,0.0,86,0.00,CLR,,0.13,WeatherDisplay:10.37,2013-03-21 01:09:00,
2013-03-20 19:14:00,41.1,37.2,29.91,SSW,213,0.0,0.0,86,0.00,CLR,,0.13,WeatherDisplay:10.37,2013-03-21 01:14:00,
2013-03-20 19:19:00,40.9,37.3,29.91,SSW,213,0.0,0.0,87,0.00,CLR,,0.13,WeatherDisplay:10.37,2013-03-21 01:19:00,
2013-03-20 19:24:00,40.8,37.2,29.91,SSW,213,0.0,0.0,87,0.00,CLR,,0.13,WeatherDisplay:10.37,2013-03-21 01:24:00,
2013-03-20 19:29:00,40.7,37.1,29.90,SSW,213,0.0,0.0,87,0.00,CLR,,0.13,WeatherDisplay:10.37,2013-03-21 01:29:00,
2013-03-20 19:34:00,40.5,37.2,29.90,SSW,213,0.0,0.0,88,0.00,CLR,,0.13,WeatherDisplay:10.37,2013-03-21 01:34:00,
2013-03-20 19:39:00,40.4,37.1,29.90,SSW,213,0.0,0.0,88,0.00,CLR,,0.13,WeatherDisplay:10.37,2013-03-21 01:39:00,
2013-03-20 19:44:00,40.2,36.9,29.90,SSW,213,0.0,0.0,88,0.00,CLR,,0.13,WeatherDisplay:10.37,2013-03-21 01:44:00,
2013-03-20 19:49:00,40.0,37.0,29.90,WNW,284,2.3,2.3,89,0.00,CLR,,0.13,WeatherDisplay:10.37,2013-03-21 01:49:00,
2013-03-20 19:54:00,39.7,36.7,29.90,WNW,302,2.3,2.3,89,0.00,CLR,,0.13,WeatherDisplay:10.37,2013-03-21 01:54:00,
2013-03-20 19:59:00,39.3,35.8,29.91,NW,321,2.3,2.3,87,0.00,CLR,,0.13,WeatherDisplay:10.37,2013-03-21 01:59:00,
2013-03-20 20:04:00,39.0,35.2,29.90,WNW,296,3.5,3.5,86,0.00,CLR,,0.13,WeatherDisplay:10.37,2013-03-21 02:04:00,
2013-03-20 20:09:00,38.8,35.3,29.91,NW,315,3.5,3.5,87,0.00,CLR,,0.13,WeatherDisplay:10.37,2013-03-21 02:09:00,
2013-03-20 20:14:00,38.7,35.2,29.91,NW,315,4.6,4.6,87,0.00,CLR,,0.13,WeatherDisplay:10.37,2013-03-21 02:14:00,
2013-03-20 20:19:00,38.7,34.9,29.90,WNW,299,3.5,3.5,86,0.00,CLR,,0.13,WeatherDisplay:10.37,2013-03-21 02:19:00,
2013-03-20 20:24:00,38.6,34.8,29.90,WNW,302,1.1,1.1,86,0.00,CLR,,0.13,WeatherDisplay:10.37,2013-03-21 02:24:00,
2013-03-20 20:29:00,38.5,34.7,29.91,WNW,298,1.1,1.1,86,0.00,CLR,,0.13,WeatherDisplay:10.37,2013-03-21 02:29:00,
2013-03-20 20:34:00,38.4,34.9,29.91,WNW,298,1.1,1.1,87,0.00,CLR,,0.13,WeatherDisplay:10.37,2013-03-21 02:34:00,
2013-03-20 20:39:00,38.4,35.2,29.91,WSW,245,0.0,0.0,88,0.00,CLR,,0.13,WeatherDisplay:10.37,2013-03-21 02:39:00,
2013-03-20 20:44:00,38.4,35.2,29.91,WSW,245,0.0,0.0,88,0.00,CLR,,0.13,WeatherDisplay:10.37,2013-03-21 02:44:00,
2013-03-20 20:49:00,38.4,35.4,29.91,WSW,245,0.0,0.0,89,0.00,CLR,,0.13,WeatherDisplay:10.37,2013-03-21 02:49:00,
2013-03-20 20:54:00,38.3,35.3,29.91,SE,132,3.5,3.5,89,0.00,CLR,,0.13,WeatherDisplay:10.37,2013-03-21 02:54:00,
2013-03-20 20:59:00,38.4,35.7,29.90,SE,140,0.0,0.0,90,0.00,CLR,,0.13,WeatherDisplay:10.37,2013-03-21 02:59:00,
2013-03-20 21:04:00,38.3,35.3,29.90,SE,140,0.0,0.0,89,0.00,CLR,,0.13,WeatherDisplay:10.37,2013-03-21 03:04:00,
2013-03-20 21:09:00,38.2,35.2,29.90,SE,140,0.0,0.0,89,0.00,CLR,,0.13,WeatherDisplay:10.37,2013-03-21 03:09:00,
2013-03-20 21:14:00,37.9,34.9,29.90,SE,140,0.0,0.0,89,0.01,RA,,0.14,WeatherDisplay:10.37,2013-03-21 03:14:00,
2013-03-20 21:19:00,37.8,34.8,29.90,SE,140,0.0,0.0,89,0.01,RA,,0.14,WeatherDisplay:10.37,2013-03-21 03:19:00,
2013-03-20 21:24:00,37.6,34.9,29.91,SE,140,0.0,0.0,90,0.01,CLR,,0.14,WeatherDisplay:10.37,2013-03-21 03:24:00,
2013-03-20 21:29:00,37.4,34.7,29.91,SE,140,0.0,0.1,90,0.01,CLR,,0.14,WeatherDisplay:10.37,2013-03-21 03:29:00,
2013-03-20 21:34:00,37.3,34.9,29.90,SE,140,1.1,1.1,91,0.01,CLR,,0.14,WeatherDisplay:10.37,2013-03-21 03:34:00,
2013-03-20 21:39:00,37.2,34.8,29.90,SE,140,0.0,0.0,91,0.01,CLR,,0.14,WeatherDisplay:10.37,2013-03-21 03:39:00,
2013-03-20 21:44:00,37.1,34.7,29.90,SE,140,0.0,0.0,91,0.01,CLR,,0.14,WeatherDisplay:10.37,2013-03-21 03:44:00,
2013-03-20 21:49:00,37.1,34.7,29.90,SE,140,0.0,0.0,91,0.01,CLR,,0.14,WeatherDisplay:10.37,2013-03-21 03:49:00,
2013-03-20 21:54:00,37.0,34.6,29.90,SE,140,0.0,0.0,91,0.01,CLR,,0.14,WeatherDisplay:10.37,2013-03-21 03:54:00,
2013-03-20 21:59:00,36.8,34.4,29.90,SSE,151,2.3,2.3,91,0.01,CLR,,0.14,WeatherDisplay:10.37,2013-03-21 03:59:00,
2013-03-20 22:00:00,36.8,34.4,29.90,SSE,151,2.3,0.0,91,0.01,CLR,,0.14,WeatherDisplay:10.37,2013-03-21 04:00:00,
2013-03-20 22:05:00,36.6,34.2,29.89,SSE,151,0.0,0.0,91,0.01,CLR,,0.14,WeatherDisplay:10.37,2013-03-21 04:05:00,
2013-03-20 22:10:00,36.4,34.0,29.89,SSE,151,2.0,2.0,91,0.00,CLR,,0.14,WeatherDisplay:10.37,2013-03-21 04:10:00,
2013-03-20 22:15:00,36.2,33.8,29.89,SSE,151,0.0,0.0,91,0.00,CLR,,0.14,WeatherDisplay:10.37,2013-03-21 04:15:00,
2013-03-20 22:20:00,36.0,33.6,29.88,SSE,151,0.0,0.5,91,0.00,CLR,,0.14,WeatherDisplay:10.37,2013-03-21 04:20:00,
2013-03-20 22:25:00,35.7,33.3,29.88,SSE,151,1.1,1.1,91,0.00,CLR,,0.14,WeatherDisplay:10.37,2013-03-21 04:25:00,
2013-03-20 22:30:00,35.5,33.4,29.88,SSE,151,0.0,0.0,92,0.00,CLR,,0.14,WeatherDisplay:10.37,2013-03-21 04:30:00,
2013-03-20 22:35:00,35.3,32.9,29.87,SSE,151,0.0,0.0,91,0.00,CLR,,0.14,WeatherDisplay:10.37,2013-03-21 04:35:00,
2013-03-20 22:40:00,35.1,32.7,29.87,SSE,151,0.0,0.0,91,0.00,CLR,,0.14,WeatherDisplay:10.37,2013-03-21 04:40:00,
2013-03-20 22:45:00,34.8,32.4,29.86,SSE,151,0.0,0.0,91,0.00,CLR,,0.14,WeatherDisplay:10.37,2013-03-21 04:45:00,
2013-03-20 22:50:00,34.5,32.1,29.86,SSE,151,0.0,0.0,91,0.00,CLR,,0.14,WeatherDisplay:10.37,2013-03-21 04:50:00,
2013-03-20 22:55:00,34.2,31.8,29.86,SSE,151,0.0,0.0,91,0.00,CLR,,0.14,WeatherDisplay:10.37,2013-03-21 04:55:00,
2013-03-20 23:00:00,33.9,31.6,29.85,SSE,151,0.0,0.0,91,0.00,CLR,,0.14,WeatherDisplay:10.37,2013-03-21 05:00:00,
2013-03-20 23:05:00,33.6,31.5,29.85,SSE,151,0.0,0.0,92,0.00,CLR,,0.14,WeatherDisplay:10.37,2013-03-21 05:05:00,
2013-03-20 23:10:00,33.4,31.3,29.85,SSE,151,0.0,0.0,92,0.00,CLR,,0.14,WeatherDisplay:10.37,2013-03-21 05:10:00,
2013-03-20 23:15:00,33.3,31.2,29.85,SSE,151,0.0,0.0,92,0.00,CLR,,0.14,WeatherDisplay:10.37,2013-03-21 05:15:00,
2013-03-20 23:20:00,33.2,31.4,29.85,SSE,151,0.0,0.0,93,0.00,CLR,,0.14,WeatherDisplay:10.37,2013-03-21 05:20:00,
2013-03-20 23:25:00,33.1,31.3,29.84,SSE,151,0.0,0.0,93,0.00,CLR,,0.14,WeatherDisplay:10.37,2013-03-21 05:25:00,
2013-03-20 23:30:00,33.0,31.2,29.84,SSE,151,0.0,0.0,93,0.00,CLR,,0.14,WeatherDisplay:10.37,2013-03-21 05:30:00,
2013-03-20 23:35:00,32.9,31.1,29.83,SSE,151,0.0,0.0,93,0.00,CLR,,0.14,WeatherDisplay:10.37,2013-03-21 05:35:00,
2013-03-20 23:40:00,32.9,31.1,29.83,SSE,151,0.0,0.0,93,0.00,CLR,,0.14,WeatherDisplay:10.37,2013-03-21 05:40:00,
2013-03-20 23:45:00,32.8,31.0,29.82,SSE,151,1.1,0.0,93,0.00,CLR,,0.14,WeatherDisplay:10.37,2013-03-21 05:45:00,
2013-03-20 23:50:00,32.7,30.9,29.82,WNW,286,2.3,2.3,93,0.00,CLR,,0.14,WeatherDisplay:10.37,2013-03-21 05:50:00,
2013-03-20 23:55:00,32.8,31.3,29.82,WNW,296,3.5,3.5,94,0.00,CLR,,0.14,WeatherDisplay:10.37,2013-03-21 05:55:00,